Weather History for Keahole Point, HI

Change the Weather History Date:

Thursday, November 22, 2012

  Actual Average Record
Temperature  
Mean Temperature 77 °F -  
Max Temperature 81 °F 81 °F 91 °F (1988)
Min Temperature 73 °F 70 °F 66 °F (2003)
Cooling Degree Days 12    
Growing Degree Days 27 (Base 50)    
Moisture  
Dew Point 69 °F    
Average Humidity 76    
Maximum Humidity 85    
Minimum Humidity 65    
Precipitation  
Precipitation 0.02 in - - ()
Sea Level Pressure  
Sea Level Pressure 29.93 in    
Wind  
Wind Speed 5 mph (North)    
Max Wind Speed 14 mph    
Max Gust Speed -    
Visibility 10 miles    
Events Rain    
Averages and records for this station are not official NWS values.
T = Trace of Precipitation, MM = Missing Value Source: NWS Daily Summary

Daily Weather History Graph

Daily Weather History Graph

Search for Another Location

Airport:

Trip Planner

Search our weather history database for the weather conditions in past years. The results will help you decide how hot, cold, wet, or windy it might be!

Date:

Astronomy

Nov. 22, 2012 Rise Set
Actual Time 6:37 AM HST 5:43 PM HST
Civil Twilight 6:13 AM HST 6:07 PM HST
Nautical Twilight 5:46 AM HST 6:34 PM HST
Astronomical Twilight 5:20 AM HST 7:00 PM HST
Moon 2:00 PM HST (11/22) 1:45 AM HST (11/22)
Length of Visible Light 11h 53m
Length of Day
11h 06m
Waxing Gibbous, 73% of the Moon is Illuminated
Nov 22
Waxing Gibbous
Nov 28
Full
Dec 6
Last Quarter
Dec 12
New
Dec 19
First Quarter

Hourly Weather History & Observations

Time (HST) Temp. Heat Index Dew Point Humidity Pressure Visibility Wind Dir Wind Speed Gust Speed Precip Events Conditions
12:53 AM 75.0 °F - 69.1 °F 82% 29.94 in 10.0 mi SE 3.5 mph - N/A   Clear
1:53 AM 75.0 °F - 68.0 °F 79% 29.94 in 10.0 mi Calm Calm - N/A   Clear
2:53 AM 75.0 °F - 68.0 °F 79% 29.92 in 10.0 mi Calm Calm - N/A   Clear
3:53 AM 75.0 °F - 68.0 °F 79% 29.91 in 10.0 mi ENE 3.5 mph - N/A   Clear
4:53 AM 75.0 °F - 68.0 °F 79% 29.92 in 10.0 mi East 4.6 mph - N/A   Overcast
5:53 AM 73.9 °F - 66.9 °F 79% 29.92 in 10.0 mi NE 3.5 mph - N/A   Scattered Clouds
6:53 AM 73.9 °F - 66.9 °F 79% 29.94 in 10.0 mi East 3.5 mph - N/A   Scattered Clouds
7:04 AM 73.4 °F - 66.2 °F 78% 29.94 in 10.0 mi Calm Calm - N/A   Mostly Cloudy
7:18 AM 73.4 °F - 66.2 °F 78% 29.94 in 10.0 mi East 3.5 mph - N/A   Scattered Clouds
7:53 AM 77.0 °F - 68.0 °F 74% 29.95 in 10.0 mi Calm Calm - N/A   Clear
8:53 AM 78.1 °F - 70.0 °F 76% 29.97 in 10.0 mi SW 3.5 mph - N/A   Mostly Cloudy
9:53 AM 80.1 °F 82.9 °F 69.1 °F 69% 29.98 in 10.0 mi WSW 6.9 mph - N/A   Clear
10:53 AM 80.1 °F 82.9 °F 69.1 °F 69% 29.97 in 10.0 mi West 5.8 mph - N/A   Mostly Cloudy
11:53 AM 81.0 °F 84.4 °F 70.0 °F 69% 29.93 in 10.0 mi West 6.9 mph - N/A   Clear
12:53 PM 80.1 °F 83.2 °F 70.0 °F 71% 29.91 in 10.0 mi WNW 8.1 mph - N/A   Partly Cloudy
1:53 PM 81.0 °F 83.8 °F 68.0 °F 65% 29.89 in 10.0 mi NNW 8.1 mph - N/A   Partly Cloudy
2:53 PM 81.0 °F 84.1 °F 69.1 °F 67% 29.89 in 10.0 mi NW 9.2 mph - N/A   Partly Cloudy
3:53 PM 80.1 °F 82.9 °F 69.1 °F 69% 29.87 in 10.0 mi North 12.7 mph - N/A   Scattered Clouds
4:53 PM 78.1 °F - 71.1 °F 79% 29.87 in 10.0 mi North 13.8 mph - 0.00 in Rain Light Rain
5:53 PM 77.0 °F - 70.0 °F 79% 29.90 in 10.0 mi North 13.8 mph - 0.01 in Rain Light Rain
6:53 PM 75.9 °F - 71.1 °F 85% 29.93 in 10.0 mi North 13.8 mph - 0.01 in   Partly Cloudy
7:53 PM 75.9 °F - 71.1 °F 85% 29.94 in 10.0 mi NNE 11.5 mph - N/A   Clear
8:53 PM 75.9 °F - 69.1 °F 79% 29.95 in 10.0 mi North 13.8 mph - 0.00 in Rain Light Rain
9:53 PM 75.0 °F - 69.1 °F 82% 29.97 in 10.0 mi NE 6.9 mph - 0.00 in Rain Light Rain
10:53 PM 75.0 °F - 66.9 °F 76% 29.97 in 10.0 mi NNE 9.2 mph - 0.00 in   Scattered Clouds
11:53 PM 73.9 °F - 66.9 °F 79% 29.96 in 10.0 mi NNE 8.1 mph - N/A   Clear